Index of /20260430/WXO-DD/model_rdps/10km/12/003
Name Last modified Size Description
Parent Directory -
20260430T12Z_MSC_RDPS_AbsoluteVorticity_IsbL-0250_RLatLon0.09_PT003H.grib2 2026-04-30 14:41 614K
20260430T12Z_MSC_RDPS_AbsoluteVorticity_IsbL-0500_RLatLon0.09_PT003H.grib2 2026-04-30 14:41 565K
20260430T12Z_MSC_RDPS_AbsoluteVorticity_IsbL-0700_RLatLon0.09_PT003H.grib2 2026-04-30 14:41 618K
20260430T12Z_MSC_RDPS_AbsoluteVorticity_IsbL-0850_RLatLon0.09_PT003H.grib2 2026-04-30 14:41 772K
20260430T12Z_MSC_RDPS_AirTemp_AGL-120m_RLatLon0.09_PT003H.grib2 2026-04-30 14:41 395K
20260430T12Z_MSC_RDPS_AirTemp_AGL-2m_RLatLon0.09_PT003H.grib2 2026-04-30 14:41 634K
20260430T12Z_MSC_RDPS_AirTemp_AGL-40m_RLatLon0.09_PT003H.grib2 2026-04-30 14:41 408K
20260430T12Z_MSC_RDPS_AirTemp_AGL-80m_RLatLon0.09_PT003H.grib2 2026-04-30 14:41 402K
20260430T12Z_MSC_RDPS_AirTemp_IsbL-0001_RLatLon0.09_PT003H.grib2 2026-04-30 14:41 315K
20260430T12Z_MSC_RDPS_AirTemp_IsbL-0005_RLatLon0.09_PT003H.grib2 2026-04-30 14:41 277K
20260430T12Z_MSC_RDPS_AirTemp_IsbL-0010_RLatLon0.09_PT003H.grib2 2026-04-30 14:41 285K
20260430T12Z_MSC_RDPS_AirTemp_IsbL-0020_RLatLon0.09_PT003H.grib2 2026-04-30 14:41 298K
20260430T12Z_MSC_RDPS_AirTemp_IsbL-0030_RLatLon0.09_PT003H.grib2 2026-04-30 14:41 318K
20260430T12Z_MSC_RDPS_AirTemp_IsbL-0050_RLatLon0.09_PT003H.grib2 2026-04-30 14:41 297K
20260430T12Z_MSC_RDPS_AirTemp_IsbL-0100_RLatLon0.09_PT003H.grib2 2026-04-30 14:41 409K
20260430T12Z_MSC_RDPS_AirTemp_IsbL-0150_RLatLon0.09_PT003H.grib2 2026-04-30 14:41 414K
20260430T12Z_MSC_RDPS_AirTemp_IsbL-0175_RLatLon0.09_PT003H.grib2 2026-04-30 14:41 404K
20260430T12Z_MSC_RDPS_AirTemp_IsbL-0200_RLatLon0.09_PT003H.grib2 2026-04-30 14:41 410K
20260430T12Z_MSC_RDPS_AirTemp_IsbL-0225_RLatLon0.09_PT003H.grib2 2026-04-30 14:41 411K
20260430T12Z_MSC_RDPS_AirTemp_IsbL-0250_RLatLon0.09_PT003H.grib2 2026-04-30 14:41 421K
20260430T12Z_MSC_RDPS_AirTemp_IsbL-0275_RLatLon0.09_PT003H.grib2 2026-04-30 14:41 403K
20260430T12Z_MSC_RDPS_AirTemp_IsbL-0300_RLatLon0.09_PT003H.grib2 2026-04-30 14:41 407K
20260430T12Z_MSC_RDPS_AirTemp_IsbL-0350_RLatLon0.09_PT003H.grib2 2026-04-30 14:41 421K
20260430T12Z_MSC_RDPS_AirTemp_IsbL-0400_RLatLon0.09_PT003H.grib2 2026-04-30 14:41 423K
20260430T12Z_MSC_RDPS_AirTemp_IsbL-0450_RLatLon0.09_PT003H.grib2 2026-04-30 14:41 429K
20260430T12Z_MSC_RDPS_AirTemp_IsbL-0500_RLatLon0.09_PT003H.grib2 2026-04-30 14:41 404K
20260430T12Z_MSC_RDPS_AirTemp_IsbL-0550_RLatLon0.09_PT003H.grib2 2026-04-30 14:41 421K
20260430T12Z_MSC_RDPS_AirTemp_IsbL-0600_RLatLon0.09_PT003H.grib2 2026-04-30 14:41 443K
20260430T12Z_MSC_RDPS_AirTemp_IsbL-0650_RLatLon0.09_PT003H.grib2 2026-04-30 14:41 459K
20260430T12Z_MSC_RDPS_AirTemp_IsbL-0700_RLatLon0.09_PT003H.grib2 2026-04-30 14:41 482K
20260430T12Z_MSC_RDPS_AirTemp_IsbL-0750_RLatLon0.09_PT003H.grib2 2026-04-30 14:41 405K
20260430T12Z_MSC_RDPS_AirTemp_IsbL-0800_RLatLon0.09_PT003H.grib2 2026-04-30 14:41 447K
20260430T12Z_MSC_RDPS_AirTemp_IsbL-0850_RLatLon0.09_PT003H.grib2 2026-04-30 14:41 497K
20260430T12Z_MSC_RDPS_AirTemp_IsbL-0875_RLatLon0.09_PT003H.grib2 2026-04-30 14:41 516K
20260430T12Z_MSC_RDPS_AirTemp_IsbL-0900_RLatLon0.09_PT003H.grib2 2026-04-30 14:41 527K
20260430T12Z_MSC_RDPS_AirTemp_IsbL-0925_RLatLon0.09_PT003H.grib2 2026-04-30 14:41 528K
20260430T12Z_MSC_RDPS_AirTemp_IsbL-0950_RLatLon0.09_PT003H.grib2 2026-04-30 14:41 532K
20260430T12Z_MSC_RDPS_AirTemp_IsbL-0970_RLatLon0.09_PT003H.grib2 2026-04-30 14:41 527K
20260430T12Z_MSC_RDPS_AirTemp_IsbL-0985_RLatLon0.09_PT003H.grib2 2026-04-30 14:41 513K
20260430T12Z_MSC_RDPS_AirTemp_IsbL-1000_RLatLon0.09_PT003H.grib2 2026-04-30 14:41 495K
20260430T12Z_MSC_RDPS_AirTemp_IsbL-1015_RLatLon0.09_PT003H.grib2 2026-04-30 14:41 494K
20260430T12Z_MSC_RDPS_Albedo_Sfc_RLatLon0.09_PT003H.grib2 2026-04-30 14:41 161K
20260430T12Z_MSC_RDPS_CAPE_Sfc_RLatLon0.09_PT003H.grib2 2026-04-30 14:41 1.6M
20260430T12Z_MSC_RDPS_CIN_Sfc_RLatLon0.09_PT003H.grib2 2026-04-30 14:41 1.1M
20260430T12Z_MSC_RDPS_CloudWater_EAtm_RLatLon0.09_PT003H.grib2 2026-04-30 14:41 216K
20260430T12Z_MSC_RDPS_ConvectivePrecip-Accum_Sfc_RLatLon0.09_PT003H.grib2 2026-04-30 14:41 358K
20260430T12Z_MSC_RDPS_DewPointDepression_AGL-2m_RLatLon0.09_PT003H.grib2 2026-04-30 14:41 414K
20260430T12Z_MSC_RDPS_DewPointDepression_IsbL-0001_RLatLon0.09_PT003H.grib2 2026-04-30 14:41 193
20260430T12Z_MSC_RDPS_DewPointDepression_IsbL-0005_RLatLon0.09_PT003H.grib2 2026-04-30 14:41 193
20260430T12Z_MSC_RDPS_DewPointDepression_IsbL-0010_RLatLon0.09_PT003H.grib2 2026-04-30 14:41 193
20260430T12Z_MSC_RDPS_DewPointDepression_IsbL-0020_RLatLon0.09_PT003H.grib2 2026-04-30 14:41 193
20260430T12Z_MSC_RDPS_DewPointDepression_IsbL-0030_RLatLon0.09_PT003H.grib2 2026-04-30 14:41 193
20260430T12Z_MSC_RDPS_DewPointDepression_IsbL-0050_RLatLon0.09_PT003H.grib2 2026-04-30 14:41 80K
20260430T12Z_MSC_RDPS_DewPointDepression_IsbL-0100_RLatLon0.09_PT003H.grib2 2026-04-30 14:41 127K
20260430T12Z_MSC_RDPS_DewPointDepression_IsbL-0150_RLatLon0.09_PT003H.grib2 2026-04-30 14:41 149K
20260430T12Z_MSC_RDPS_DewPointDepression_IsbL-0175_RLatLon0.09_PT003H.grib2 2026-04-30 14:41 180K
20260430T12Z_MSC_RDPS_DewPointDepression_IsbL-0200_RLatLon0.09_PT003H.grib2 2026-04-30 14:41 221K
20260430T12Z_MSC_RDPS_DewPointDepression_IsbL-0225_RLatLon0.09_PT003H.grib2 2026-04-30 14:41 265K
20260430T12Z_MSC_RDPS_DewPointDepression_IsbL-0250_RLatLon0.09_PT003H.grib2 2026-04-30 14:41 301K
20260430T12Z_MSC_RDPS_DewPointDepression_IsbL-0275_RLatLon0.09_PT003H.grib2 2026-04-30 14:41 306K
20260430T12Z_MSC_RDPS_DewPointDepression_IsbL-0300_RLatLon0.09_PT003H.grib2 2026-04-30 14:41 324K
20260430T12Z_MSC_RDPS_DewPointDepression_IsbL-0350_RLatLon0.09_PT003H.grib2 2026-04-30 14:41 328K
20260430T12Z_MSC_RDPS_DewPointDepression_IsbL-0400_RLatLon0.09_PT003H.grib2 2026-04-30 14:41 337K
20260430T12Z_MSC_RDPS_DewPointDepression_IsbL-0450_RLatLon0.09_PT003H.grib2 2026-04-30 14:41 342K
20260430T12Z_MSC_RDPS_DewPointDepression_IsbL-0500_RLatLon0.09_PT003H.grib2 2026-04-30 14:41 344K
20260430T12Z_MSC_RDPS_DewPointDepression_IsbL-0550_RLatLon0.09_PT003H.grib2 2026-04-30 14:41 352K
20260430T12Z_MSC_RDPS_DewPointDepression_IsbL-0600_RLatLon0.09_PT003H.grib2 2026-04-30 14:41 367K
20260430T12Z_MSC_RDPS_DewPointDepression_IsbL-0650_RLatLon0.09_PT003H.grib2 2026-04-30 14:41 374K
20260430T12Z_MSC_RDPS_DewPointDepression_IsbL-0700_RLatLon0.09_PT003H.grib2 2026-04-30 14:41 380K
20260430T12Z_MSC_RDPS_DewPointDepression_IsbL-0750_RLatLon0.09_PT003H.grib2 2026-04-30 14:41 398K
20260430T12Z_MSC_RDPS_DewPointDepression_IsbL-0800_RLatLon0.09_PT003H.grib2 2026-04-30 14:41 431K
20260430T12Z_MSC_RDPS_DewPointDepression_IsbL-0850_RLatLon0.09_PT003H.grib2 2026-04-30 14:41 460K
20260430T12Z_MSC_RDPS_DewPointDepression_IsbL-0875_RLatLon0.09_PT003H.grib2 2026-04-30 14:41 462K
20260430T12Z_MSC_RDPS_DewPointDepression_IsbL-0900_RLatLon0.09_PT003H.grib2 2026-04-30 14:41 457K
20260430T12Z_MSC_RDPS_DewPointDepression_IsbL-0925_RLatLon0.09_PT003H.grib2 2026-04-30 14:41 448K
20260430T12Z_MSC_RDPS_DewPointDepression_IsbL-0950_RLatLon0.09_PT003H.grib2 2026-04-30 14:41 446K
20260430T12Z_MSC_RDPS_DewPointDepression_IsbL-0970_RLatLon0.09_PT003H.grib2 2026-04-30 14:41 442K
20260430T12Z_MSC_RDPS_DewPointDepression_IsbL-0985_RLatLon0.09_PT003H.grib2 2026-04-30 14:41 436K
20260430T12Z_MSC_RDPS_DewPointDepression_IsbL-1000_RLatLon0.09_PT003H.grib2 2026-04-30 14:41 428K
20260430T12Z_MSC_RDPS_DewPointDepression_IsbL-1015_RLatLon0.09_PT003H.grib2 2026-04-30 14:41 421K
20260430T12Z_MSC_RDPS_DewPoint_AGL-2m_RLatLon0.09_PT003H.grib2 2026-04-30 14:41 398K
20260430T12Z_MSC_RDPS_DownwardLongwaveRadiationFlux-Accum_Sfc_RLatLon0.09_PT003H.grib2 2026-04-30 14:41 563K
20260430T12Z_MSC_RDPS_DownwardShortwaveRadiationFlux-Accum_NTAtm_RLatLon0.09_PT003H.grib2 2026-04-30 14:41 92K
20260430T12Z_MSC_RDPS_DownwardShortwaveRadiationFlux-Accum_Sfc_RLatLon0.09_PT003H.grib2 2026-04-30 14:41 377K
20260430T12Z_MSC_RDPS_FreezingRain-Accum1h_Sfc_RLatLon0.09_PT003H.grib2 2026-04-30 14:41 23K
20260430T12Z_MSC_RDPS_FreezingRain-Accum3h_Sfc_RLatLon0.09_PT003H.grib2 2026-04-30 14:41 41K
20260430T12Z_MSC_RDPS_FreezingRain-Accum_Sfc_RLatLon0.09_PT003H.grib2 2026-04-30 14:41 49K
20260430T12Z_MSC_RDPS_GeopotentialHeight_IsbL-0001_RLatLon0.09_PT003H.grib2 2026-04-30 14:41 318K
20260430T12Z_MSC_RDPS_GeopotentialHeight_IsbL-0005_RLatLon0.09_PT003H.grib2 2026-04-30 14:41 336K
20260430T12Z_MSC_RDPS_GeopotentialHeight_IsbL-0010_RLatLon0.09_PT003H.grib2 2026-04-30 14:41 336K
20260430T12Z_MSC_RDPS_GeopotentialHeight_IsbL-0020_RLatLon0.09_PT003H.grib2 2026-04-30 14:41 301K
20260430T12Z_MSC_RDPS_GeopotentialHeight_IsbL-0030_RLatLon0.09_PT003H.grib2 2026-04-30 14:41 302K
20260430T12Z_MSC_RDPS_GeopotentialHeight_IsbL-0050_RLatLon0.09_PT003H.grib2 2026-04-30 14:41 304K
20260430T12Z_MSC_RDPS_GeopotentialHeight_IsbL-0100_RLatLon0.09_PT003H.grib2 2026-04-30 14:41 282K
20260430T12Z_MSC_RDPS_GeopotentialHeight_IsbL-0150_RLatLon0.09_PT003H.grib2 2026-04-30 14:41 227K
20260430T12Z_MSC_RDPS_GeopotentialHeight_IsbL-0175_RLatLon0.09_PT003H.grib2 2026-04-30 14:41 261K
20260430T12Z_MSC_RDPS_GeopotentialHeight_IsbL-0200_RLatLon0.09_PT003H.grib2 2026-04-30 14:41 263K
20260430T12Z_MSC_RDPS_GeopotentialHeight_IsbL-0225_RLatLon0.09_PT003H.grib2 2026-04-30 14:41 265K
20260430T12Z_MSC_RDPS_GeopotentialHeight_IsbL-0250_RLatLon0.09_PT003H.grib2 2026-04-30 14:41 267K
20260430T12Z_MSC_RDPS_GeopotentialHeight_IsbL-0275_RLatLon0.09_PT003H.grib2 2026-04-30 14:41 266K
20260430T12Z_MSC_RDPS_GeopotentialHeight_IsbL-0300_RLatLon0.09_PT003H.grib2 2026-04-30 14:41 266K
20260430T12Z_MSC_RDPS_GeopotentialHeight_IsbL-0350_RLatLon0.09_PT003H.grib2 2026-04-30 14:41 232K
20260430T12Z_MSC_RDPS_GeopotentialHeight_IsbL-0400_RLatLon0.09_PT003H.grib2 2026-04-30 14:41 229K
20260430T12Z_MSC_RDPS_GeopotentialHeight_IsbL-0450_RLatLon0.09_PT003H.grib2 2026-04-30 14:41 297K
20260430T12Z_MSC_RDPS_GeopotentialHeight_IsbL-0500_RLatLon0.09_PT003H.grib2 2026-04-30 14:41 291K
20260430T12Z_MSC_RDPS_GeopotentialHeight_IsbL-0550_RLatLon0.09_PT003H.grib2 2026-04-30 14:41 286K
20260430T12Z_MSC_RDPS_GeopotentialHeight_IsbL-0600_RLatLon0.09_PT003H.grib2 2026-04-30 14:41 282K
20260430T12Z_MSC_RDPS_GeopotentialHeight_IsbL-0650_RLatLon0.09_PT003H.grib2 2026-04-30 14:41 252K
20260430T12Z_MSC_RDPS_GeopotentialHeight_IsbL-0700_RLatLon0.09_PT003H.grib2 2026-04-30 14:41 332K
20260430T12Z_MSC_RDPS_GeopotentialHeight_IsbL-0750_RLatLon0.09_PT003H.grib2 2026-04-30 14:41 334K
20260430T12Z_MSC_RDPS_GeopotentialHeight_IsbL-0800_RLatLon0.09_PT003H.grib2 2026-04-30 14:41 342K
20260430T12Z_MSC_RDPS_GeopotentialHeight_IsbL-0850_RLatLon0.09_PT003H.grib2 2026-04-30 14:41 351K
20260430T12Z_MSC_RDPS_GeopotentialHeight_IsbL-0875_RLatLon0.09_PT003H.grib2 2026-04-30 14:41 387K
20260430T12Z_MSC_RDPS_GeopotentialHeight_IsbL-0900_RLatLon0.09_PT003H.grib2 2026-04-30 14:41 391K
20260430T12Z_MSC_RDPS_GeopotentialHeight_IsbL-0925_RLatLon0.09_PT003H.grib2 2026-04-30 14:41 395K
20260430T12Z_MSC_RDPS_GeopotentialHeight_IsbL-0950_RLatLon0.09_PT003H.grib2 2026-04-30 14:41 399K
20260430T12Z_MSC_RDPS_GeopotentialHeight_IsbL-0970_RLatLon0.09_PT003H.grib2 2026-04-30 14:41 407K
20260430T12Z_MSC_RDPS_GeopotentialHeight_IsbL-0985_RLatLon0.09_PT003H.grib2 2026-04-30 14:41 417K
20260430T12Z_MSC_RDPS_GeopotentialHeight_IsbL-1000_RLatLon0.09_PT003H.grib2 2026-04-30 14:41 431K
20260430T12Z_MSC_RDPS_GeopotentialHeight_IsbL-1015_RLatLon0.09_PT003H.grib2 2026-04-30 14:41 447K
20260430T12Z_MSC_RDPS_Humidex_Sfc_RLatLon0.09_PT003H.grib2 2026-04-30 14:41 2.4M
20260430T12Z_MSC_RDPS_IcePellets-Accum1h_Sfc_RLatLon0.09_PT003H.grib2 2026-04-30 14:41 3.6K
20260430T12Z_MSC_RDPS_IcePellets-Accum3h_Sfc_RLatLon0.09_PT003H.grib2 2026-04-30 14:41 3.6K
20260430T12Z_MSC_RDPS_IcePellets-Accum_Sfc_RLatLon0.09_PT003H.grib2 2026-04-30 14:41 3.7K
20260430T12Z_MSC_RDPS_KIndex_Sfc_RLatLon0.09_PT003H.grib2 2026-04-30 14:41 2.4M
20260430T12Z_MSC_RDPS_LatentHeatNetFlux_Sfc_RLatLon0.09_PT003H.grib2 2026-04-30 14:41 366K
20260430T12Z_MSC_RDPS_LiftedIndex-MU-VT_IsbL-0500_RLatLon0.09_PT003H.grib2 2026-04-30 14:41 2.4M
20260430T12Z_MSC_RDPS_NetLongwaveRadiationFlux-Accum_Sfc_RLatLon0.09_PT003H.grib2 2026-04-30 14:41 579K
20260430T12Z_MSC_RDPS_NetShortwaveRadiationFlux-Accum_Sfc_RLatLon0.09_PT003H.grib2 2026-04-30 14:41 475K
20260430T12Z_MSC_RDPS_PlanetaryBoundaryLayerHeight_Sfc_RLatLon0.09_PT003H.grib2 2026-04-30 14:41 1.2M
20260430T12Z_MSC_RDPS_Precip-Accum1h_Sfc_RLatLon0.09_PT003H.grib2 2026-04-30 14:41 1.1M
20260430T12Z_MSC_RDPS_Precip-Accum3h_Sfc_RLatLon0.09_PT003H.grib2 2026-04-30 14:41 1.2M
20260430T12Z_MSC_RDPS_Precip-Accum_Sfc_RLatLon0.09_PT003H.grib2 2026-04-30 14:41 1.2M
20260430T12Z_MSC_RDPS_PrecipRate_Sfc_RLatLon0.09_PT003H.grib2 2026-04-30 14:41 163K
20260430T12Z_MSC_RDPS_PrecipType-Instant_Sfc_RLatLon0.09_PT003H.grib2 2026-04-30 14:41 562K
20260430T12Z_MSC_RDPS_Pressure-Trend3h_Sfc_RLatLon0.09_PT003H.grib2 2026-04-30 14:41 1.2M
20260430T12Z_MSC_RDPS_Pressure_MSL_RLatLon0.09_PT003H.grib2 2026-04-30 14:41 294K
20260430T12Z_MSC_RDPS_Pressure_PVU-1.5_RLatLon0.09_PT003H.grib2 2026-04-30 14:41 2.3M
20260430T12Z_MSC_RDPS_Pressure_PVU-1_RLatLon0.09_PT003H.grib2 2026-04-30 14:41 2.4M
20260430T12Z_MSC_RDPS_Pressure_PVU-2_RLatLon0.09_PT003H.grib2 2026-04-30 14:41 2.4M
20260430T12Z_MSC_RDPS_Pressure_Sfc_RLatLon0.09_PT003H.grib2 2026-04-30 14:41 501K
20260430T12Z_MSC_RDPS_RadiativeTemp_Sfc_RLatLon0.09_PT003H.grib2 2026-04-30 14:41 316K
20260430T12Z_MSC_RDPS_Rain-Accum1h_Sfc_RLatLon0.09_PT003H.grib2 2026-04-30 14:41 515K
20260430T12Z_MSC_RDPS_Rain-Accum3h_Sfc_RLatLon0.09_PT003H.grib2 2026-04-30 14:41 641K
20260430T12Z_MSC_RDPS_Rain-Accum_Sfc_RLatLon0.09_PT003H.grib2 2026-04-30 14:41 884K
20260430T12Z_MSC_RDPS_RelativeHumidity_AGL-2m_RLatLon0.09_PT003H.grib2 2026-04-30 14:41 1.0M
20260430T12Z_MSC_RDPS_RelativeHumidity_IsbL-0010_RLatLon0.09_PT003H.grib2 2026-04-30 14:41 633K
20260430T12Z_MSC_RDPS_RelativeHumidity_IsbL-0020_RLatLon0.09_PT003H.grib2 2026-04-30 14:41 682K
20260430T12Z_MSC_RDPS_RelativeHumidity_IsbL-0030_RLatLon0.09_PT003H.grib2 2026-04-30 14:41 595K
20260430T12Z_MSC_RDPS_RelativeHumidity_IsbL-0050_RLatLon0.09_PT003H.grib2 2026-04-30 14:41 360K
20260430T12Z_MSC_RDPS_RelativeHumidity_IsbL-0100_RLatLon0.09_PT003H.grib2 2026-04-30 14:41 277K
20260430T12Z_MSC_RDPS_RelativeHumidity_IsbL-0150_RLatLon0.09_PT003H.grib2 2026-04-30 14:41 403K
20260430T12Z_MSC_RDPS_RelativeHumidity_IsbL-0175_RLatLon0.09_PT003H.grib2 2026-04-30 14:41 472K
20260430T12Z_MSC_RDPS_RelativeHumidity_IsbL-0200_RLatLon0.09_PT003H.grib2 2026-04-30 14:41 552K
20260430T12Z_MSC_RDPS_RelativeHumidity_IsbL-0225_RLatLon0.09_PT003H.grib2 2026-04-30 14:41 623K
20260430T12Z_MSC_RDPS_RelativeHumidity_IsbL-0250_RLatLon0.09_PT003H.grib2 2026-04-30 14:41 694K
20260430T12Z_MSC_RDPS_RelativeHumidity_IsbL-0275_RLatLon0.09_PT003H.grib2 2026-04-30 14:41 720K
20260430T12Z_MSC_RDPS_RelativeHumidity_IsbL-0300_RLatLon0.09_PT003H.grib2 2026-04-30 14:41 763K
20260430T12Z_MSC_RDPS_RelativeHumidity_IsbL-0350_RLatLon0.09_PT003H.grib2 2026-04-30 14:41 778K
20260430T12Z_MSC_RDPS_RelativeHumidity_IsbL-0400_RLatLon0.09_PT003H.grib2 2026-04-30 14:41 790K
20260430T12Z_MSC_RDPS_RelativeHumidity_IsbL-0450_RLatLon0.09_PT003H.grib2 2026-04-30 14:41 792K
20260430T12Z_MSC_RDPS_RelativeHumidity_IsbL-0500_RLatLon0.09_PT003H.grib2 2026-04-30 14:41 804K
20260430T12Z_MSC_RDPS_RelativeHumidity_IsbL-0550_RLatLon0.09_PT003H.grib2 2026-04-30 14:41 817K
20260430T12Z_MSC_RDPS_RelativeHumidity_IsbL-0600_RLatLon0.09_PT003H.grib2 2026-04-30 14:41 840K
20260430T12Z_MSC_RDPS_RelativeHumidity_IsbL-0650_RLatLon0.09_PT003H.grib2 2026-04-30 14:41 857K
20260430T12Z_MSC_RDPS_RelativeHumidity_IsbL-0700_RLatLon0.09_PT003H.grib2 2026-04-30 14:41 878K
20260430T12Z_MSC_RDPS_RelativeHumidity_IsbL-0750_RLatLon0.09_PT003H.grib2 2026-04-30 14:41 918K
20260430T12Z_MSC_RDPS_RelativeHumidity_IsbL-0800_RLatLon0.09_PT003H.grib2 2026-04-30 14:41 1.0M
20260430T12Z_MSC_RDPS_RelativeHumidity_IsbL-0850_RLatLon0.09_PT003H.grib2 2026-04-30 14:41 1.0M
20260430T12Z_MSC_RDPS_RelativeHumidity_IsbL-0875_RLatLon0.09_PT003H.grib2 2026-04-30 14:41 1.0M
20260430T12Z_MSC_RDPS_RelativeHumidity_IsbL-0900_RLatLon0.09_PT003H.grib2 2026-04-30 14:41 1.1M
20260430T12Z_MSC_RDPS_RelativeHumidity_IsbL-0925_RLatLon0.09_PT003H.grib2 2026-04-30 14:41 1.1M
20260430T12Z_MSC_RDPS_RelativeHumidity_IsbL-0950_RLatLon0.09_PT003H.grib2 2026-04-30 14:41 1.1M
20260430T12Z_MSC_RDPS_RelativeHumidity_IsbL-0970_RLatLon0.09_PT003H.grib2 2026-04-30 14:41 1.1M
20260430T12Z_MSC_RDPS_RelativeHumidity_IsbL-0985_RLatLon0.09_PT003H.grib2 2026-04-30 14:41 1.0M
20260430T12Z_MSC_RDPS_RelativeHumidity_IsbL-1000_RLatLon0.09_PT003H.grib2 2026-04-30 14:41 1.0M
20260430T12Z_MSC_RDPS_RelativeHumidity_IsbL-1015_RLatLon0.09_PT003H.grib2 2026-04-30 14:41 1.0M
20260430T12Z_MSC_RDPS_Runoff-Accum_Sfc_RLatLon0.09_PT003H.grib2 2026-04-30 14:41 29K
20260430T12Z_MSC_RDPS_SWEATIndex_Sfc_RLatLon0.09_PT003H.grib2 2026-04-30 14:41 2.4M
20260430T12Z_MSC_RDPS_SeeingIndex_EAtm_RLatLon0.09_PT003H.grib2 2026-04-30 14:41 1.0M
20260430T12Z_MSC_RDPS_SensibleHeatNetFlux_Sfc_RLatLon0.09_PT003H.grib2 2026-04-30 14:41 347K
20260430T12Z_MSC_RDPS_ShowalterIndex_IsbL-0500_RLatLon0.09_PT003H.grib2 2026-04-30 14:41 2.6M
20260430T12Z_MSC_RDPS_SkyTransparencyIndex_EAtm_RLatLon0.09_PT003H.grib2 2026-04-30 14:41 672K
20260430T12Z_MSC_RDPS_Snow-Accum1h_Sfc_RLatLon0.09_PT003H.grib2 2026-04-30 14:41 438K
20260430T12Z_MSC_RDPS_Snow-Accum3h_Sfc_RLatLon0.09_PT003H.grib2 2026-04-30 14:41 442K
20260430T12Z_MSC_RDPS_Snow-Accum_Sfc_RLatLon0.09_PT003H.grib2 2026-04-30 14:41 587K
20260430T12Z_MSC_RDPS_SnowDensity_Sfc_RLatLon0.09_PT003H.grib2 2026-04-30 14:41 169K
20260430T12Z_MSC_RDPS_SnowDepth_Sfc_RLatLon0.09_PT003H.grib2 2026-04-30 14:41 670K
20260430T12Z_MSC_RDPS_SoilTemp_DBS-0to10cm_RLatLon0.09_PT003H.grib2 2026-04-30 14:41 190K
20260430T12Z_MSC_RDPS_SoilTemp_Sfc_RLatLon0.09_PT003H.grib2 2026-04-30 14:41 281K
20260430T12Z_MSC_RDPS_SoilVolumetricIceContent_Sfc_RLatLon0.09_PT003H.grib2 2026-04-30 14:41 164K
20260430T12Z_MSC_RDPS_SoilVolumetricWaterContent_DBS-0to10cm_RLatLon0.09_PT003H.grib2 2026-04-30 14:41 267K
20260430T12Z_MSC_RDPS_SoilVolumetricWaterContent_DBS-0to1cm_RLatLon0.09_PT003H.grib2 2026-04-30 14:41 331K
20260430T12Z_MSC_RDPS_SpecificHumidity_AGL-120m_RLatLon0.09_PT003H.grib2 2026-04-30 14:41 489K
20260430T12Z_MSC_RDPS_SpecificHumidity_AGL-2m_RLatLon0.09_PT003H.grib2 2026-04-30 14:41 655K
20260430T12Z_MSC_RDPS_SpecificHumidity_AGL-40m_RLatLon0.09_PT003H.grib2 2026-04-30 14:41 494K
20260430T12Z_MSC_RDPS_SpecificHumidity_AGL-80m_RLatLon0.09_PT003H.grib2 2026-04-30 14:41 491K
20260430T12Z_MSC_RDPS_SpecificHumidity_IsbL-0001_RLatLon0.09_PT003H.grib2 2026-04-30 14:41 392K
20260430T12Z_MSC_RDPS_SpecificHumidity_IsbL-0005_RLatLon0.09_PT003H.grib2 2026-04-30 14:41 355K
20260430T12Z_MSC_RDPS_SpecificHumidity_IsbL-0010_RLatLon0.09_PT003H.grib2 2026-04-30 14:41 389K
20260430T12Z_MSC_RDPS_SpecificHumidity_IsbL-0020_RLatLon0.09_PT003H.grib2 2026-04-30 14:41 382K
20260430T12Z_MSC_RDPS_SpecificHumidity_IsbL-0030_RLatLon0.09_PT003H.grib2 2026-04-30 14:41 367K
20260430T12Z_MSC_RDPS_SpecificHumidity_IsbL-0050_RLatLon0.09_PT003H.grib2 2026-04-30 14:41 457K
20260430T12Z_MSC_RDPS_SpecificHumidity_IsbL-0100_RLatLon0.09_PT003H.grib2 2026-04-30 14:41 346K
20260430T12Z_MSC_RDPS_SpecificHumidity_IsbL-0150_RLatLon0.09_PT003H.grib2 2026-04-30 14:41 446K
20260430T12Z_MSC_RDPS_SpecificHumidity_IsbL-0175_RLatLon0.09_PT003H.grib2 2026-04-30 14:41 530K
20260430T12Z_MSC_RDPS_SpecificHumidity_IsbL-0200_RLatLon0.09_PT003H.grib2 2026-04-30 14:41 449K
20260430T12Z_MSC_RDPS_SpecificHumidity_IsbL-0225_RLatLon0.09_PT003H.grib2 2026-04-30 14:41 455K
20260430T12Z_MSC_RDPS_SpecificHumidity_IsbL-0250_RLatLon0.09_PT003H.grib2 2026-04-30 14:41 559K
20260430T12Z_MSC_RDPS_SpecificHumidity_IsbL-0275_RLatLon0.09_PT003H.grib2 2026-04-30 14:41 474K
20260430T12Z_MSC_RDPS_SpecificHumidity_IsbL-0300_RLatLon0.09_PT003H.grib2 2026-04-30 14:41 449K
20260430T12Z_MSC_RDPS_SpecificHumidity_IsbL-0350_RLatLon0.09_PT003H.grib2 2026-04-30 14:41 563K
20260430T12Z_MSC_RDPS_SpecificHumidity_IsbL-0400_RLatLon0.09_PT003H.grib2 2026-04-30 14:41 517K
20260430T12Z_MSC_RDPS_SpecificHumidity_IsbL-0450_RLatLon0.09_PT003H.grib2 2026-04-30 14:41 566K
20260430T12Z_MSC_RDPS_SpecificHumidity_IsbL-0500_RLatLon0.09_PT003H.grib2 2026-04-30 14:41 500K
20260430T12Z_MSC_RDPS_SpecificHumidity_IsbL-0550_RLatLon0.09_PT003H.grib2 2026-04-30 14:41 570K
20260430T12Z_MSC_RDPS_SpecificHumidity_IsbL-0600_RLatLon0.09_PT003H.grib2 2026-04-30 14:41 625K
20260430T12Z_MSC_RDPS_SpecificHumidity_IsbL-0650_RLatLon0.09_PT003H.grib2 2026-04-30 14:41 545K
20260430T12Z_MSC_RDPS_SpecificHumidity_IsbL-0700_RLatLon0.09_PT003H.grib2 2026-04-30 14:41 584K
20260430T12Z_MSC_RDPS_SpecificHumidity_IsbL-0750_RLatLon0.09_PT003H.grib2 2026-04-30 14:41 636K
20260430T12Z_MSC_RDPS_SpecificHumidity_IsbL-0800_RLatLon0.09_PT003H.grib2 2026-04-30 14:41 715K
20260430T12Z_MSC_RDPS_SpecificHumidity_IsbL-0850_RLatLon0.09_PT003H.grib2 2026-04-30 14:41 787K
20260430T12Z_MSC_RDPS_SpecificHumidity_IsbL-0875_RLatLon0.09_PT003H.grib2 2026-04-30 14:41 813K
20260430T12Z_MSC_RDPS_SpecificHumidity_IsbL-0900_RLatLon0.09_PT003H.grib2 2026-04-30 14:41 829K
20260430T12Z_MSC_RDPS_SpecificHumidity_IsbL-0925_RLatLon0.09_PT003H.grib2 2026-04-30 14:41 695K
20260430T12Z_MSC_RDPS_SpecificHumidity_IsbL-0950_RLatLon0.09_PT003H.grib2 2026-04-30 14:41 700K
20260430T12Z_MSC_RDPS_SpecificHumidity_IsbL-0970_RLatLon0.09_PT003H.grib2 2026-04-30 14:41 694K
20260430T12Z_MSC_RDPS_SpecificHumidity_IsbL-0985_RLatLon0.09_PT003H.grib2 2026-04-30 14:41 684K
20260430T12Z_MSC_RDPS_SpecificHumidity_IsbL-1000_RLatLon0.09_PT003H.grib2 2026-04-30 14:41 674K
20260430T12Z_MSC_RDPS_SpecificHumidity_IsbL-1015_RLatLon0.09_PT003H.grib2 2026-04-30 14:41 664K
20260430T12Z_MSC_RDPS_SpecificHumidity_Sfc_RLatLon0.09_PT003H.grib2 2026-04-30 14:41 309K
20260430T12Z_MSC_RDPS_StormRelativeHelicity_EtaL-10000_RLatLon0.09_PT003H.grib2 2026-04-30 14:41 1.2M
20260430T12Z_MSC_RDPS_StormSeverityIndex_EtaL-10000_RLatLon0.09_PT003H.grib2 2026-04-30 14:41 1.2M
20260430T12Z_MSC_RDPS_Thickness_IsbL-0850to0700_RLatLon0.09_PT003H.grib2 2026-04-30 14:41 177K
20260430T12Z_MSC_RDPS_Thickness_IsbL-1000to0500_RLatLon0.09_PT003H.grib2 2026-04-30 14:41 200K
20260430T12Z_MSC_RDPS_Thickness_IsbL-1000to0850_RLatLon0.09_PT003H.grib2 2026-04-30 14:41 265K
20260430T12Z_MSC_RDPS_TotalCloudCover_Sfc_RLatLon0.09_PT003H.grib2 2026-04-30 14:41 648K
20260430T12Z_MSC_RDPS_TotalTotalsIndex_Sfc_RLatLon0.09_PT003H.grib2 2026-04-30 14:41 2.3M
20260430T12Z_MSC_RDPS_UVIndex-ClearSky_Sfc_RLatLon0.09_PT003H.grib2 2026-04-30 14:41 182K
20260430T12Z_MSC_RDPS_UVIndex_Sfc_RLatLon0.09_PT003H.grib2 2026-04-30 14:41 411K
20260430T12Z_MSC_RDPS_UpwardLongwaveRadiationFlux_NTAtm_RLatLon0.09_PT003H.grib2 2026-04-30 14:41 490K
20260430T12Z_MSC_RDPS_UpwardShortwaveRadiationFlux_NTAtm_RLatLon0.09_PT003H.grib2 2026-04-30 14:41 461K
20260430T12Z_MSC_RDPS_VerticalVelocity_IsbL-0250_RLatLon0.09_PT003H.grib2 2026-04-30 14:41 550K
20260430T12Z_MSC_RDPS_VerticalVelocity_IsbL-0500_RLatLon0.09_PT003H.grib2 2026-04-30 14:41 542K
20260430T12Z_MSC_RDPS_VerticalVelocity_IsbL-0700_RLatLon0.09_PT003H.grib2 2026-04-30 14:41 584K
20260430T12Z_MSC_RDPS_VerticalVelocity_IsbL-0850_RLatLon0.09_PT003H.grib2 2026-04-30 14:41 674K
20260430T12Z_MSC_RDPS_VerticalWindShear_EtaL-6500_RLatLon0.09_PT003H.grib2 2026-04-30 14:41 1.2M
20260430T12Z_MSC_RDPS_WindChill_Sfc_RLatLon0.09_PT003H.grib2 2026-04-30 14:41 1.1M
20260430T12Z_MSC_RDPS_WindDir_AGL-10m_RLatLon0.09_PT003H.grib2 2026-04-30 14:41 1.0M
20260430T12Z_MSC_RDPS_WindDir_AGL-120m_RLatLon0.09_PT003H.grib2 2026-04-30 14:41 622K
20260430T12Z_MSC_RDPS_WindDir_AGL-40m_RLatLon0.09_PT003H.grib2 2026-04-30 14:41 647K
20260430T12Z_MSC_RDPS_WindDir_AGL-80m_RLatLon0.09_PT003H.grib2 2026-04-30 14:41 633K
20260430T12Z_MSC_RDPS_WindDir_IsbL-0001_RLatLon0.09_PT003H.grib2 2026-04-30 14:41 302K
20260430T12Z_MSC_RDPS_WindDir_IsbL-0005_RLatLon0.09_PT003H.grib2 2026-04-30 14:41 359K
20260430T12Z_MSC_RDPS_WindDir_IsbL-0010_RLatLon0.09_PT003H.grib2 2026-04-30 14:41 368K
20260430T12Z_MSC_RDPS_WindDir_IsbL-0020_RLatLon0.09_PT003H.grib2 2026-04-30 14:41 389K
20260430T12Z_MSC_RDPS_WindDir_IsbL-0030_RLatLon0.09_PT003H.grib2 2026-04-30 14:41 403K
20260430T12Z_MSC_RDPS_WindDir_IsbL-0050_RLatLon0.09_PT003H.grib2 2026-04-30 14:41 420K
20260430T12Z_MSC_RDPS_WindDir_IsbL-0100_RLatLon0.09_PT003H.grib2 2026-04-30 14:41 422K
20260430T12Z_MSC_RDPS_WindDir_IsbL-0150_RLatLon0.09_PT003H.grib2 2026-04-30 14:41 423K
20260430T12Z_MSC_RDPS_WindDir_IsbL-0175_RLatLon0.09_PT003H.grib2 2026-04-30 14:41 440K
20260430T12Z_MSC_RDPS_WindDir_IsbL-0200_RLatLon0.09_PT003H.grib2 2026-04-30 14:41 453K
20260430T12Z_MSC_RDPS_WindDir_IsbL-0225_RLatLon0.09_PT003H.grib2 2026-04-30 14:41 456K
20260430T12Z_MSC_RDPS_WindDir_IsbL-0250_RLatLon0.09_PT003H.grib2 2026-04-30 14:41 459K
20260430T12Z_MSC_RDPS_WindDir_IsbL-0275_RLatLon0.09_PT003H.grib2 2026-04-30 14:41 484K
20260430T12Z_MSC_RDPS_WindDir_IsbL-0300_RLatLon0.09_PT003H.grib2 2026-04-30 14:41 480K
20260430T12Z_MSC_RDPS_WindDir_IsbL-0350_RLatLon0.09_PT003H.grib2 2026-04-30 14:41 496K
20260430T12Z_MSC_RDPS_WindDir_IsbL-0400_RLatLon0.09_PT003H.grib2 2026-04-30 14:41 505K
20260430T12Z_MSC_RDPS_WindDir_IsbL-0450_RLatLon0.09_PT003H.grib2 2026-04-30 14:41 516K
20260430T12Z_MSC_RDPS_WindDir_IsbL-0500_RLatLon0.09_PT003H.grib2 2026-04-30 14:41 532K
20260430T12Z_MSC_RDPS_WindDir_IsbL-0550_RLatLon0.09_PT003H.grib2 2026-04-30 14:41 552K
20260430T12Z_MSC_RDPS_WindDir_IsbL-0600_RLatLon0.09_PT003H.grib2 2026-04-30 14:41 587K
20260430T12Z_MSC_RDPS_WindDir_IsbL-0650_RLatLon0.09_PT003H.grib2 2026-04-30 14:41 638K
20260430T12Z_MSC_RDPS_WindDir_IsbL-0700_RLatLon0.09_PT003H.grib2 2026-04-30 14:41 690K
20260430T12Z_MSC_RDPS_WindDir_IsbL-0750_RLatLon0.09_PT003H.grib2 2026-04-30 14:41 735K
20260430T12Z_MSC_RDPS_WindDir_IsbL-0800_RLatLon0.09_PT003H.grib2 2026-04-30 14:41 796K
20260430T12Z_MSC_RDPS_WindDir_IsbL-0850_RLatLon0.09_PT003H.grib2 2026-04-30 14:41 867K
20260430T12Z_MSC_RDPS_WindDir_IsbL-0875_RLatLon0.09_PT003H.grib2 2026-04-30 14:41 894K
20260430T12Z_MSC_RDPS_WindDir_IsbL-0900_RLatLon0.09_PT003H.grib2 2026-04-30 14:41 908K
20260430T12Z_MSC_RDPS_WindDir_IsbL-0925_RLatLon0.09_PT003H.grib2 2026-04-30 14:41 918K
20260430T12Z_MSC_RDPS_WindDir_IsbL-0950_RLatLon0.09_PT003H.grib2 2026-04-30 14:41 919K
20260430T12Z_MSC_RDPS_WindDir_IsbL-0970_RLatLon0.09_PT003H.grib2 2026-04-30 14:41 931K
20260430T12Z_MSC_RDPS_WindDir_IsbL-0985_RLatLon0.09_PT003H.grib2 2026-04-30 14:41 942K
20260430T12Z_MSC_RDPS_WindDir_IsbL-1000_RLatLon0.09_PT003H.grib2 2026-04-30 14:41 955K
20260430T12Z_MSC_RDPS_WindDir_IsbL-1015_RLatLon0.09_PT003H.grib2 2026-04-30 14:41 972K
20260430T12Z_MSC_RDPS_WindGust-Max_AGL-10m_RLatLon0.09_PT003H.grib2 2026-04-30 14:41 1.0M
20260430T12Z_MSC_RDPS_WindGust-Min_AGL-10m_RLatLon0.09_PT003H.grib2 2026-04-30 14:41 971K
20260430T12Z_MSC_RDPS_WindGust_AGL-10m_RLatLon0.09_PT003H.grib2 2026-04-30 14:41 1.0M
20260430T12Z_MSC_RDPS_WindSpeed_AGL-10m_RLatLon0.09_PT003H.grib2 2026-04-30 14:41 834K
20260430T12Z_MSC_RDPS_WindSpeed_AGL-120m_RLatLon0.09_PT003H.grib2 2026-04-30 14:41 535K
20260430T12Z_MSC_RDPS_WindSpeed_AGL-40m_RLatLon0.09_PT003H.grib2 2026-04-30 14:41 535K
20260430T12Z_MSC_RDPS_WindSpeed_AGL-80m_RLatLon0.09_PT003H.grib2 2026-04-30 14:41 535K
20260430T12Z_MSC_RDPS_WindSpeed_IsbL-0001_RLatLon0.09_PT003H.grib2 2026-04-30 14:41 328K
20260430T12Z_MSC_RDPS_WindSpeed_IsbL-0005_RLatLon0.09_PT003H.grib2 2026-04-30 14:41 370K
20260430T12Z_MSC_RDPS_WindSpeed_IsbL-0010_RLatLon0.09_PT003H.grib2 2026-04-30 14:41 382K
20260430T12Z_MSC_RDPS_WindSpeed_IsbL-0020_RLatLon0.09_PT003H.grib2 2026-04-30 14:41 306K
20260430T12Z_MSC_RDPS_WindSpeed_IsbL-0030_RLatLon0.09_PT003H.grib2 2026-04-30 14:41 308K
20260430T12Z_MSC_RDPS_WindSpeed_IsbL-0050_RLatLon0.09_PT003H.grib2 2026-04-30 14:41 334K
20260430T12Z_MSC_RDPS_WindSpeed_IsbL-0100_RLatLon0.09_PT003H.grib2 2026-04-30 14:41 463K
20260430T12Z_MSC_RDPS_WindSpeed_IsbL-0150_RLatLon0.09_PT003H.grib2 2026-04-30 14:41 376K
20260430T12Z_MSC_RDPS_WindSpeed_IsbL-0175_RLatLon0.09_PT003H.grib2 2026-04-30 14:41 424K
20260430T12Z_MSC_RDPS_WindSpeed_IsbL-0200_RLatLon0.09_PT003H.grib2 2026-04-30 14:41 441K
20260430T12Z_MSC_RDPS_WindSpeed_IsbL-0225_RLatLon0.09_PT003H.grib2 2026-04-30 14:41 447K
20260430T12Z_MSC_RDPS_WindSpeed_IsbL-0250_RLatLon0.09_PT003H.grib2 2026-04-30 14:41 453K
20260430T12Z_MSC_RDPS_WindSpeed_IsbL-0275_RLatLon0.09_PT003H.grib2 2026-04-30 14:41 470K
20260430T12Z_MSC_RDPS_WindSpeed_IsbL-0300_RLatLon0.09_PT003H.grib2 2026-04-30 14:41 467K
20260430T12Z_MSC_RDPS_WindSpeed_IsbL-0350_RLatLon0.09_PT003H.grib2 2026-04-30 14:41 478K
20260430T12Z_MSC_RDPS_WindSpeed_IsbL-0400_RLatLon0.09_PT003H.grib2 2026-04-30 14:41 480K
20260430T12Z_MSC_RDPS_WindSpeed_IsbL-0450_RLatLon0.09_PT003H.grib2 2026-04-30 14:41 461K
20260430T12Z_MSC_RDPS_WindSpeed_IsbL-0500_RLatLon0.09_PT003H.grib2 2026-04-30 14:41 462K
20260430T12Z_MSC_RDPS_WindSpeed_IsbL-0550_RLatLon0.09_PT003H.grib2 2026-04-30 14:41 462K
20260430T12Z_MSC_RDPS_WindSpeed_IsbL-0600_RLatLon0.09_PT003H.grib2 2026-04-30 14:41 588K
20260430T12Z_MSC_RDPS_WindSpeed_IsbL-0650_RLatLon0.09_PT003H.grib2 2026-04-30 14:41 610K
20260430T12Z_MSC_RDPS_WindSpeed_IsbL-0700_RLatLon0.09_PT003H.grib2 2026-04-30 14:41 679K
20260430T12Z_MSC_RDPS_WindSpeed_IsbL-0750_RLatLon0.09_PT003H.grib2 2026-04-30 14:41 708K
20260430T12Z_MSC_RDPS_WindSpeed_IsbL-0800_RLatLon0.09_PT003H.grib2 2026-04-30 14:41 753K
20260430T12Z_MSC_RDPS_WindSpeed_IsbL-0850_RLatLon0.09_PT003H.grib2 2026-04-30 14:41 808K
20260430T12Z_MSC_RDPS_WindSpeed_IsbL-0875_RLatLon0.09_PT003H.grib2 2026-04-30 14:41 828K
20260430T12Z_MSC_RDPS_WindSpeed_IsbL-0900_RLatLon0.09_PT003H.grib2 2026-04-30 14:41 842K
20260430T12Z_MSC_RDPS_WindSpeed_IsbL-0925_RLatLon0.09_PT003H.grib2 2026-04-30 14:41 850K
20260430T12Z_MSC_RDPS_WindSpeed_IsbL-0950_RLatLon0.09_PT003H.grib2 2026-04-30 14:41 849K
20260430T12Z_MSC_RDPS_WindSpeed_IsbL-0970_RLatLon0.09_PT003H.grib2 2026-04-30 14:41 850K
20260430T12Z_MSC_RDPS_WindSpeed_IsbL-0985_RLatLon0.09_PT003H.grib2 2026-04-30 14:41 844K
20260430T12Z_MSC_RDPS_WindSpeed_IsbL-1000_RLatLon0.09_PT003H.grib2 2026-04-30 14:41 841K
20260430T12Z_MSC_RDPS_WindSpeed_IsbL-1015_RLatLon0.09_PT003H.grib2 2026-04-30 14:41 833K
20260430T12Z_MSC_RDPS_WindU_AGL-10m_RLatLon0.09_PT003H.grib2 2026-04-30 14:41 429K
20260430T12Z_MSC_RDPS_WindU_AGL-120m_RLatLon0.09_PT003H.grib2 2026-04-30 14:41 532K
20260430T12Z_MSC_RDPS_WindU_AGL-40m_RLatLon0.09_PT003H.grib2 2026-04-30 14:41 533K
20260430T12Z_MSC_RDPS_WindU_AGL-80m_RLatLon0.09_PT003H.grib2 2026-04-30 14:41 533K
20260430T12Z_MSC_RDPS_WindU_IsbL-0001_RLatLon0.09_PT003H.grib2 2026-04-30 14:41 288K
20260430T12Z_MSC_RDPS_WindU_IsbL-0005_RLatLon0.09_PT003H.grib2 2026-04-30 14:41 276K
20260430T12Z_MSC_RDPS_WindU_IsbL-0010_RLatLon0.09_PT003H.grib2 2026-04-30 14:41 283K
20260430T12Z_MSC_RDPS_WindU_IsbL-0020_RLatLon0.09_PT003H.grib2 2026-04-30 14:41 337K
20260430T12Z_MSC_RDPS_WindU_IsbL-0030_RLatLon0.09_PT003H.grib2 2026-04-30 14:41 299K
20260430T12Z_MSC_RDPS_WindU_IsbL-0050_RLatLon0.09_PT003H.grib2 2026-04-30 14:41 325K
20260430T12Z_MSC_RDPS_WindU_IsbL-0100_RLatLon0.09_PT003H.grib2 2026-04-30 14:41 420K
20260430T12Z_MSC_RDPS_WindU_IsbL-0150_RLatLon0.09_PT003H.grib2 2026-04-30 14:41 393K
20260430T12Z_MSC_RDPS_WindU_IsbL-0175_RLatLon0.09_PT003H.grib2 2026-04-30 14:41 417K
20260430T12Z_MSC_RDPS_WindU_IsbL-0200_RLatLon0.09_PT003H.grib2 2026-04-30 14:41 335K
20260430T12Z_MSC_RDPS_WindU_IsbL-0225_RLatLon0.09_PT003H.grib2 2026-04-30 14:41 340K
20260430T12Z_MSC_RDPS_WindU_IsbL-0250_RLatLon0.09_PT003H.grib2 2026-04-30 14:41 343K
20260430T12Z_MSC_RDPS_WindU_IsbL-0275_RLatLon0.09_PT003H.grib2 2026-04-30 14:41 358K
20260430T12Z_MSC_RDPS_WindU_IsbL-0300_RLatLon0.09_PT003H.grib2 2026-04-30 14:41 355K
20260430T12Z_MSC_RDPS_WindU_IsbL-0350_RLatLon0.09_PT003H.grib2 2026-04-30 14:41 363K
20260430T12Z_MSC_RDPS_WindU_IsbL-0400_RLatLon0.09_PT003H.grib2 2026-04-30 14:41 468K
20260430T12Z_MSC_RDPS_WindU_IsbL-0450_RLatLon0.09_PT003H.grib2 2026-04-30 14:41 466K
20260430T12Z_MSC_RDPS_WindU_IsbL-0500_RLatLon0.09_PT003H.grib2 2026-04-30 14:41 467K
20260430T12Z_MSC_RDPS_WindU_IsbL-0550_RLatLon0.09_PT003H.grib2 2026-04-30 14:41 468K
20260430T12Z_MSC_RDPS_WindU_IsbL-0600_RLatLon0.09_PT003H.grib2 2026-04-30 14:41 459K
20260430T12Z_MSC_RDPS_WindU_IsbL-0650_RLatLon0.09_PT003H.grib2 2026-04-30 14:41 479K
20260430T12Z_MSC_RDPS_WindU_IsbL-0700_RLatLon0.09_PT003H.grib2 2026-04-30 14:41 503K
20260430T12Z_MSC_RDPS_WindU_IsbL-0750_RLatLon0.09_PT003H.grib2 2026-04-30 14:41 529K
20260430T12Z_MSC_RDPS_WindU_IsbL-0800_RLatLon0.09_PT003H.grib2 2026-04-30 14:41 569K
20260430T12Z_MSC_RDPS_WindU_IsbL-0850_RLatLon0.09_PT003H.grib2 2026-04-30 14:41 751K
20260430T12Z_MSC_RDPS_WindU_IsbL-0875_RLatLon0.09_PT003H.grib2 2026-04-30 14:41 769K
20260430T12Z_MSC_RDPS_WindU_IsbL-0900_RLatLon0.09_PT003H.grib2 2026-04-30 14:41 781K
20260430T12Z_MSC_RDPS_WindU_IsbL-0925_RLatLon0.09_PT003H.grib2 2026-04-30 14:41 790K
20260430T12Z_MSC_RDPS_WindU_IsbL-0950_RLatLon0.09_PT003H.grib2 2026-04-30 14:41 786K
20260430T12Z_MSC_RDPS_WindU_IsbL-0970_RLatLon0.09_PT003H.grib2 2026-04-30 14:41 787K
20260430T12Z_MSC_RDPS_WindU_IsbL-0985_RLatLon0.09_PT003H.grib2 2026-04-30 14:41 784K
20260430T12Z_MSC_RDPS_WindU_IsbL-1000_RLatLon0.09_PT003H.grib2 2026-04-30 14:41 781K
20260430T12Z_MSC_RDPS_WindU_IsbL-1015_RLatLon0.09_PT003H.grib2 2026-04-30 14:41 821K
20260430T12Z_MSC_RDPS_WindV_AGL-10m_RLatLon0.09_PT003H.grib2 2026-04-30 14:41 429K
20260430T12Z_MSC_RDPS_WindV_AGL-120m_RLatLon0.09_PT003H.grib2 2026-04-30 14:41 531K
20260430T12Z_MSC_RDPS_WindV_AGL-40m_RLatLon0.09_PT003H.grib2 2026-04-30 14:41 531K
20260430T12Z_MSC_RDPS_WindV_AGL-80m_RLatLon0.09_PT003H.grib2 2026-04-30 14:41 531K
20260430T12Z_MSC_RDPS_WindV_IsbL-0001_RLatLon0.09_PT003H.grib2 2026-04-30 14:41 241K
20260430T12Z_MSC_RDPS_WindV_IsbL-0005_RLatLon0.09_PT003H.grib2 2026-04-30 14:41 275K
20260430T12Z_MSC_RDPS_WindV_IsbL-0010_RLatLon0.09_PT003H.grib2 2026-04-30 14:41 285K
20260430T12Z_MSC_RDPS_WindV_IsbL-0020_RLatLon0.09_PT003H.grib2 2026-04-30 14:41 298K
20260430T12Z_MSC_RDPS_WindV_IsbL-0030_RLatLon0.09_PT003H.grib2 2026-04-30 14:41 301K
20260430T12Z_MSC_RDPS_WindV_IsbL-0050_RLatLon0.09_PT003H.grib2 2026-04-30 14:41 326K
20260430T12Z_MSC_RDPS_WindV_IsbL-0100_RLatLon0.09_PT003H.grib2 2026-04-30 14:41 414K
20260430T12Z_MSC_RDPS_WindV_IsbL-0150_RLatLon0.09_PT003H.grib2 2026-04-30 14:41 392K
20260430T12Z_MSC_RDPS_WindV_IsbL-0175_RLatLon0.09_PT003H.grib2 2026-04-30 14:41 415K
20260430T12Z_MSC_RDPS_WindV_IsbL-0200_RLatLon0.09_PT003H.grib2 2026-04-30 14:41 333K
20260430T12Z_MSC_RDPS_WindV_IsbL-0225_RLatLon0.09_PT003H.grib2 2026-04-30 14:41 338K
20260430T12Z_MSC_RDPS_WindV_IsbL-0250_RLatLon0.09_PT003H.grib2 2026-04-30 14:41 341K
20260430T12Z_MSC_RDPS_WindV_IsbL-0275_RLatLon0.09_PT003H.grib2 2026-04-30 14:41 356K
20260430T12Z_MSC_RDPS_WindV_IsbL-0300_RLatLon0.09_PT003H.grib2 2026-04-30 14:41 352K
20260430T12Z_MSC_RDPS_WindV_IsbL-0350_RLatLon0.09_PT003H.grib2 2026-04-30 14:41 361K
20260430T12Z_MSC_RDPS_WindV_IsbL-0400_RLatLon0.09_PT003H.grib2 2026-04-30 14:41 464K
20260430T12Z_MSC_RDPS_WindV_IsbL-0450_RLatLon0.09_PT003H.grib2 2026-04-30 14:41 463K
20260430T12Z_MSC_RDPS_WindV_IsbL-0500_RLatLon0.09_PT003H.grib2 2026-04-30 14:41 464K
20260430T12Z_MSC_RDPS_WindV_IsbL-0550_RLatLon0.09_PT003H.grib2 2026-04-30 14:41 465K
20260430T12Z_MSC_RDPS_WindV_IsbL-0600_RLatLon0.09_PT003H.grib2 2026-04-30 14:41 457K
20260430T12Z_MSC_RDPS_WindV_IsbL-0650_RLatLon0.09_PT003H.grib2 2026-04-30 14:41 477K
20260430T12Z_MSC_RDPS_WindV_IsbL-0700_RLatLon0.09_PT003H.grib2 2026-04-30 14:41 499K
20260430T12Z_MSC_RDPS_WindV_IsbL-0750_RLatLon0.09_PT003H.grib2 2026-04-30 14:41 648K
20260430T12Z_MSC_RDPS_WindV_IsbL-0800_RLatLon0.09_PT003H.grib2 2026-04-30 14:41 691K
20260430T12Z_MSC_RDPS_WindV_IsbL-0850_RLatLon0.09_PT003H.grib2 2026-04-30 14:41 747K
20260430T12Z_MSC_RDPS_WindV_IsbL-0875_RLatLon0.09_PT003H.grib2 2026-04-30 14:41 767K
20260430T12Z_MSC_RDPS_WindV_IsbL-0900_RLatLon0.09_PT003H.grib2 2026-04-30 14:41 780K
20260430T12Z_MSC_RDPS_WindV_IsbL-0925_RLatLon0.09_PT003H.grib2 2026-04-30 14:41 790K
20260430T12Z_MSC_RDPS_WindV_IsbL-0950_RLatLon0.09_PT003H.grib2 2026-04-30 14:41 786K
20260430T12Z_MSC_RDPS_WindV_IsbL-0970_RLatLon0.09_PT003H.grib2 2026-04-30 14:41 786K
20260430T12Z_MSC_RDPS_WindV_IsbL-0985_RLatLon0.09_PT003H.grib2 2026-04-30 14:41 783K
20260430T12Z_MSC_RDPS_WindV_IsbL-1000_RLatLon0.09_PT003H.grib2 2026-04-30 14:41 826K
20260430T12Z_MSC_RDPS_WindV_IsbL-1015_RLatLon0.09_PT003H.grib2 2026-04-30 14:41 820K